#datetime,building,power
2023-09-12T00:00:00,mfh,37.43
2023-09-12T00:01:00,mfh,37.00
2023-09-12T00:02:00,mfh,37.80
2023-09-12T00:03:00,mfh,35.80
2023-09-12T00:04:00,mfh,36.43
2023-09-12T00:05:00,mfh,36.36
2023-09-12T00:06:00,mfh,37.86
2023-09-12T00:07:00,mfh,37.83
2023-09-12T00:08:00,mfh,37.69
2023-09-12T00:09:00,mfh,36.29
2023-09-12T00:10:00,mfh,35.65
2023-09-12T00:11:00,mfh,35.61
2023-09-12T00:12:00,mfh,35.73
2023-09-12T00:13:00,mfh,36.17
2023-09-12T00:14:00,mfh,36.30
2023-09-12T00:15:00,mfh,36.83
2023-09-12T00:16:00,mfh,36.20
2023-09-12T00:17:00,mfh,36.27
2023-09-12T00:18:00,mfh,36.15
2023-09-12T00:19:00,mfh,35.40
2023-09-12T00:20:00,mfh,35.46
2023-09-12T00:21:00,mfh,35.57
2023-09-12T00:22:00,mfh,35.51
2023-09-12T00:23:00,mfh,36.03
2023-09-12T00:24:00,mfh,36.25
2023-09-12T00:25:00,mfh,36.25
2023-09-12T00:26:00,mfh,36.26
2023-09-12T00:27:00,mfh,36.45
2023-09-12T00:28:00,mfh,36.39
2023-09-12T00:29:00,mfh,35.73
2023-09-12T00:30:00,mfh,35.75
2023-09-12T00:31:00,mfh,36.06
2023-09-12T00:32:00,mfh,36.27
2023-09-12T00:33:00,mfh,36.30
2023-09-12T00:34:00,mfh,36.22
2023-09-12T00:35:00,mfh,36.28
2023-09-12T00:36:00,mfh,36.24
2023-09-12T00:37:00,mfh,36.14
2023-09-12T00:38:00,mfh,35.44
2023-09-12T00:39:00,mfh,35.78
2023-09-12T00:40:00,mfh,35.54
2023-09-12T00:41:00,mfh,36.25
2023-09-12T00:42:00,mfh,36.07
2023-09-12T00:43:00,mfh,35.44
2023-09-12T00:44:00,mfh,35.50
2023-09-12T00:45:00,mfh,36.30
2023-09-12T00:46:00,mfh,36.28
2023-09-12T00:47:00,mfh,35.43
2023-09-12T00:48:00,mfh,35.53
2023-09-12T00:49:00,mfh,35.24
2023-09-12T00:50:00,mfh,36.56
2023-09-12T00:51:00,mfh,36.13
2023-09-12T00:52:00,mfh,35.50
2023-09-12T00:53:00,mfh,35.57
2023-09-12T00:54:00,mfh,35.49
2023-09-12T00:55:00,mfh,36.12
2023-09-12T00:56:00,mfh,36.26
2023-09-12T00:57:00,mfh,36.13
2023-09-12T00:58:00,mfh,36.25
2023-09-12T00:59:00,mfh,36.07
2023-09-12T01:00:00,mfh,37.11
2023-09-12T01:01:00,mfh,37.23
2023-09-12T01:02:00,mfh,37.96
2023-09-12T01:03:00,mfh,37.13
2023-09-12T01:04:00,mfh,37.80
2023-09-12T01:05:00,mfh,35.54
2023-09-12T01:06:00,mfh,35.60
2023-09-12T01:07:00,mfh,35.52
2023-09-12T01:08:00,mfh,35.57
2023-09-12T01:09:00,mfh,36.21
2023-09-12T01:10:00,mfh,36.27
2023-09-12T01:11:00,mfh,36.70
2023-09-12T01:12:00,mfh,36.14
2023-09-12T01:13:00,mfh,35.99
2023-09-12T01:14:00,mfh,35.99
2023-09-12T01:15:00,mfh,35.35
2023-09-12T01:16:00,mfh,35.24
2023-09-12T01:17:00,mfh,35.55
2023-09-12T01:18:00,mfh,37.28
2023-09-12T01:19:00,mfh,36.39
2023-09-12T01:20:00,mfh,36.67
2023-09-12T01:21:00,mfh,36.19
2023-09-12T01:22:00,mfh,36.06
2023-09-12T01:23:00,mfh,35.26
2023-09-12T01:24:00,mfh,35.08
2023-09-12T01:25:00,mfh,36.30
2023-09-12T01:26:00,mfh,35.78
2023-09-12T01:27:00,mfh,36.66
2023-09-12T01:28:00,mfh,36.74
2023-09-12T01:29:00,mfh,36.22
2023-09-12T01:30:00,mfh,36.75
2023-09-12T01:31:00,mfh,36.49
2023-09-12T01:32:00,mfh,37.92
2023-09-12T01:33:00,mfh,36.26
2023-09-12T01:34:00,mfh,35.74
2023-09-12T01:35:00,mfh,35.77
2023-09-12T01:36:00,mfh,35.73
2023-09-12T01:37:00,mfh,35.58
2023-09-12T01:38:00,mfh,36.62
2023-09-12T01:39:00,mfh,36.07
2023-09-12T01:40:00,mfh,36.34
2023-09-12T01:41:00,mfh,36.00
2023-09-12T01:42:00,mfh,35.48
2023-09-12T01:43:00,mfh,35.34
2023-09-12T01:44:00,mfh,34.92
2023-09-12T01:45:00,mfh,35.55
2023-09-12T01:46:00,mfh,35.41
2023-09-12T01:47:00,mfh,36.19
2023-09-12T01:48:00,mfh,36.08
2023-09-12T01:49:00,mfh,36.17
2023-09-12T01:50:00,mfh,36.30
2023-09-12T01:51:00,mfh,35.32
2023-09-12T01:52:00,mfh,35.21
2023-09-12T01:53:00,mfh,34.93
2023-09-12T01:54:00,mfh,35.58
2023-09-12T01:55:00,mfh,35.22
2023-09-12T01:56:00,mfh,35.04
2023-09-12T01:57:00,mfh,36.28
2023-09-12T01:58:00,mfh,36.32
2023-09-12T01:59:00,mfh,36.65
2023-09-12T02:00:00,mfh,36.09
2023-09-12T02:01:00,mfh,36.55
2023-09-12T02:02:00,mfh,35.93
2023-09-12T02:03:00,mfh,36.93
2023-09-12T02:04:00,mfh,36.91
2023-09-12T02:05:00,mfh,37.19
2023-09-12T02:06:00,mfh,36.22
2023-09-12T02:07:00,mfh,36.33
2023-09-12T02:08:00,mfh,37.00
2023-09-12T02:09:00,mfh,35.72
2023-09-12T02:10:00,mfh,35.03
2023-09-12T02:11:00,mfh,35.04
2023-09-12T02:12:00,mfh,34.91
2023-09-12T02:13:00,mfh,36.14
2023-09-12T02:14:00,mfh,35.24
2023-09-12T02:15:00,mfh,35.42
2023-09-12T02:16:00,mfh,35.27
2023-09-12T02:17:00,mfh,35.41
2023-09-12T02:18:00,mfh,35.89
2023-09-12T02:19:00,mfh,35.59
2023-09-12T02:20:00,mfh,34.92
2023-09-12T02:21:00,mfh,34.62
2023-09-12T02:22:00,mfh,35.30
2023-09-12T02:23:00,mfh,35.19
2023-09-12T02:24:00,mfh,35.38
2023-09-12T02:25:00,mfh,35.16
2023-09-12T02:26:00,mfh,35.22
2023-09-12T02:27:00,mfh,35.22
2023-09-12T02:28:00,mfh,34.87
2023-09-12T02:29:00,mfh,34.65
2023-09-12T02:30:00,mfh,34.68
2023-09-12T02:31:00,mfh,34.54
2023-09-12T02:32:00,mfh,36.94
2023-09-12T02:33:00,mfh,35.41
2023-09-12T02:34:00,mfh,35.44
2023-09-12T02:35:00,mfh,35.61
2023-09-12T02:36:00,mfh,35.58
2023-09-12T02:37:00,mfh,35.74
2023-09-12T02:38:00,mfh,34.90
2023-09-12T02:39:00,mfh,36.61
2023-09-12T02:40:00,mfh,35.63
2023-09-12T02:41:00,mfh,35.37
2023-09-12T02:42:00,mfh,35.46
2023-09-12T02:43:00,mfh,35.51
2023-09-12T02:44:00,mfh,35.60
2023-09-12T02:45:00,mfh,35.53
2023-09-12T02:46:00,mfh,35.75
2023-09-12T02:47:00,mfh,35.58
2023-09-12T02:48:00,mfh,35.69
2023-09-12T02:49:00,mfh,35.73
2023-09-12T02:50:00,mfh,36.73
2023-09-12T02:51:00,mfh,36.62
2023-09-12T02:52:00,mfh,36.19
2023-09-12T02:53:00,mfh,36.38
2023-09-12T02:54:00,mfh,36.36
2023-09-12T02:55:00,mfh,36.39
2023-09-12T02:56:00,mfh,35.79
2023-09-12T02:57:00,mfh,35.60
2023-09-12T02:58:00,mfh,35.72
2023-09-12T02:59:00,mfh,36.33
2023-09-12T03:00:00,mfh,36.46
2023-09-12T03:01:00,mfh,36.40
2023-09-12T03:02:00,mfh,36.20
2023-09-12T03:03:00,mfh,36.39
2023-09-12T03:04:00,mfh,36.38
2023-09-12T03:05:00,mfh,35.80
2023-09-12T03:06:00,mfh,36.75
2023-09-12T03:07:00,mfh,36.10
2023-09-12T03:08:00,mfh,36.52
2023-09-12T03:09:00,mfh,37.32
2023-09-12T03:10:00,mfh,37.06
2023-09-12T03:11:00,mfh,37.56
2023-09-12T03:12:00,mfh,37.43
2023-09-12T03:13:00,mfh,36.34
2023-09-12T03:14:00,mfh,35.91
2023-09-12T03:15:00,mfh,35.96
2023-09-12T03:16:00,mfh,35.61
2023-09-12T03:17:00,mfh,37.29
2023-09-12T03:18:00,mfh,36.64
2023-09-12T03:19:00,mfh,36.61
2023-09-12T03:20:00,mfh,36.37
2023-09-12T03:21:00,mfh,36.37
2023-09-12T03:22:00,mfh,36.61
2023-09-12T03:23:00,mfh,36.41
2023-09-12T03:24:00,mfh,35.98
2023-09-12T03:25:00,mfh,35.75
2023-09-12T03:26:00,mfh,35.79
2023-09-12T03:27:00,mfh,36.24
2023-09-12T03:28:00,mfh,36.16
2023-09-12T03:29:00,mfh,36.02
2023-09-12T03:30:00,mfh,36.33
2023-09-12T03:31:00,mfh,36.40
2023-09-12T03:32:00,mfh,36.08
2023-09-12T03:33:00,mfh,35.34
2023-09-12T03:34:00,mfh,35.33
2023-09-12T03:35:00,mfh,35.35
2023-09-12T03:36:00,mfh,36.65
2023-09-12T03:37:00,mfh,36.20
2023-09-12T03:38:00,mfh,36.40
2023-09-12T03:39:00,mfh,36.52
2023-09-12T03:40:00,mfh,36.12
2023-09-12T03:41:00,mfh,36.15
2023-09-12T03:42:00,mfh,36.70
2023-09-12T03:43:00,mfh,35.83
2023-09-12T03:44:00,mfh,35.68
2023-09-12T03:45:00,mfh,35.69
2023-09-12T03:46:00,mfh,38.59
2023-09-12T03:47:00,mfh,38.44
2023-09-12T03:48:00,mfh,38.05
2023-09-12T03:49:00,mfh,36.63
2023-09-12T03:50:00,mfh,36.22
2023-09-12T03:51:00,mfh,36.24
2023-09-12T03:52:00,mfh,35.62
2023-09-12T03:53:00,mfh,35.58
2023-09-12T03:54:00,mfh,36.57
2023-09-12T03:55:00,mfh,36.25
2023-09-12T03:56:00,mfh,36.25
2023-09-12T03:57:00,mfh,36.61
2023-09-12T03:58:00,mfh,36.33
2023-09-12T03:59:00,mfh,36.02
2023-09-12T04:00:00,mfh,35.27
2023-09-12T04:01:00,mfh,34.96
2023-09-12T04:02:00,mfh,34.96
2023-09-12T04:03:00,mfh,35.57
2023-09-12T04:04:00,mfh,35.95
2023-09-12T04:05:00,mfh,36.12
2023-09-12T04:06:00,mfh,36.25
2023-09-12T04:07:00,mfh,36.43
2023-09-12T04:08:00,mfh,36.35
2023-09-12T04:09:00,mfh,37.21
2023-09-12T04:10:00,mfh,36.16
2023-09-12T04:11:00,mfh,36.26
2023-09-12T04:12:00,mfh,36.59
2023-09-12T04:13:00,mfh,38.74
2023-09-12T04:14:00,mfh,37.83
2023-09-12T04:15:00,mfh,36.34
2023-09-12T04:16:00,mfh,36.21
2023-09-12T04:17:00,mfh,36.70
2023-09-12T04:18:00,mfh,36.58
2023-09-12T04:19:00,mfh,36.43
2023-09-12T04:20:00,mfh,35.75
2023-09-12T04:21:00,mfh,35.59
2023-09-12T04:22:00,mfh,35.68
2023-09-12T04:23:00,mfh,36.42
2023-09-12T04:24:00,mfh,36.36
2023-09-12T04:25:00,mfh,37.22
2023-09-12T04:26:00,mfh,36.58
2023-09-12T04:27:00,mfh,36.85
2023-09-12T04:28:00,mfh,36.67
2023-09-12T04:29:00,mfh,35.92
2023-09-12T04:30:00,mfh,35.71
2023-09-12T04:31:00,mfh,35.73
2023-09-12T04:32:00,mfh,36.37
2023-09-12T04:33:00,mfh,36.97
2023-09-12T04:34:00,mfh,37.58
2023-09-12T04:35:00,mfh,36.96
2023-09-12T04:36:00,mfh,37.15
2023-09-12T04:37:00,mfh,37.52
2023-09-12T04:38:00,mfh,36.75
2023-09-12T04:39:00,mfh,36.66
2023-09-12T04:40:00,mfh,36.74
2023-09-12T04:41:00,mfh,36.77
2023-09-12T04:42:00,mfh,37.22
2023-09-12T04:43:00,mfh,37.24
2023-09-12T04:44:00,mfh,37.23
2023-09-12T04:45:00,mfh,38.00
2023-09-12T04:46:00,mfh,38.23
2023-09-12T04:47:00,mfh,38.21
2023-09-12T04:48:00,mfh,37.82
2023-09-12T04:49:00,mfh,37.63
2023-09-12T04:50:00,mfh,37.47
2023-09-12T04:51:00,mfh,38.08
2023-09-12T04:52:00,mfh,37.23
2023-09-12T04:53:00,mfh,37.06
2023-09-12T04:54:00,mfh,37.07
2023-09-12T04:55:00,mfh,36.86
2023-09-12T04:56:00,mfh,38.13
2023-09-12T04:57:00,mfh,37.22
2023-09-12T04:58:00,mfh,37.13
2023-09-12T04:59:00,mfh,36.93
2023-09-12T05:00:00,mfh,37.56
2023-09-12T05:01:00,mfh,56.58
2023-09-12T05:02:00,mfh,58.05
2023-09-12T05:03:00,mfh,58.49
2023-09-12T05:04:00,mfh,58.75
2023-09-12T05:05:00,mfh,58.04
2023-09-12T05:06:00,mfh,58.06
2023-09-12T05:07:00,mfh,57.57
2023-09-12T05:08:00,mfh,58.20
2023-09-12T05:09:00,mfh,58.11
2023-09-12T05:10:00,mfh,58.14
2023-09-12T05:11:00,mfh,58.37
2023-09-12T05:12:00,mfh,58.49
2023-09-12T05:13:00,mfh,65.31
2023-09-12T05:14:00,mfh,65.98
2023-09-12T05:15:00,mfh,68.34
2023-09-12T05:16:00,mfh,66.31
2023-09-12T05:17:00,mfh,66.26
2023-09-12T05:18:00,mfh,66.12
2023-09-12T05:19:00,mfh,66.38
2023-09-12T05:20:00,mfh,66.51
2023-09-12T05:21:00,mfh,66.80
2023-09-12T05:22:00,mfh,66.44
2023-09-12T05:23:00,mfh,66.72
2023-09-12T05:24:00,mfh,66.66
2023-09-12T05:25:00,mfh,65.83
2023-09-12T05:26:00,mfh,65.82
2023-09-12T05:27:00,mfh,65.39
2023-09-12T05:28:00,mfh,66.62
2023-09-12T05:29:00,mfh,66.95
2023-09-12T05:30:00,mfh,66.85
2023-09-12T05:31:00,mfh,68.17
2023-09-12T05:32:00,mfh,67.73
2023-09-12T05:33:00,mfh,67.88
2023-09-12T05:34:00,mfh,67.38
2023-09-12T05:35:00,mfh,67.76
2023-09-12T05:36:00,mfh,67.79
2023-09-12T05:37:00,mfh,67.93
2023-09-12T05:38:00,mfh,67.94
2023-09-12T05:39:00,mfh,68.41
2023-09-12T05:40:00,mfh,67.92
2023-09-12T05:41:00,mfh,67.67
2023-09-12T05:42:00,mfh,71.94
2023-09-12T05:43:00,mfh,71.81
2023-09-12T05:44:00,mfh,71.89
2023-09-12T05:45:00,mfh,71.29
2023-09-12T05:46:00,mfh,71.17
2023-09-12T05:47:00,mfh,71.77
2023-09-12T05:48:00,mfh,71.79
2023-09-12T05:49:00,mfh,71.81
2023-09-12T05:50:00,mfh,71.64
2023-09-12T05:51:00,mfh,71.59
2023-09-12T05:52:00,mfh,72.04
2023-09-12T05:53:00,mfh,71.02
2023-09-12T05:54:00,mfh,71.19
2023-09-12T05:55:00,mfh,72.03
2023-09-12T05:56:00,mfh,72.20
2023-09-12T05:57:00,mfh,71.23
2023-09-12T05:58:00,mfh,71.17
2023-09-12T05:59:00,mfh,72.49
2023-09-12T06:00:00,mfh,67.65
2023-09-12T06:01:00,mfh,67.77
2023-09-12T06:02:00,mfh,68.49
2023-09-12T06:03:00,mfh,68.38
2023-09-12T06:04:00,mfh,68.54
2023-09-12T06:05:00,mfh,70.48
2023-09-12T06:06:00,mfh,70.04
2023-09-12T06:07:00,mfh,70.81
2023-09-12T06:08:00,mfh,71.26
2023-09-12T06:09:00,mfh,71.59
2023-09-12T06:10:00,mfh,71.60
2023-09-12T06:11:00,mfh,70.99
2023-09-12T06:12:00,mfh,71.31
2023-09-12T06:13:00,mfh,71.72
2023-09-12T06:14:00,mfh,70.96
2023-09-12T06:15:00,mfh,71.49
2023-09-12T06:16:00,mfh,71.72
2023-09-12T06:17:00,mfh,71.27
2023-09-12T06:18:00,mfh,71.95
2023-09-12T06:19:00,mfh,72.12
2023-09-12T06:20:00,mfh,71.34
2023-09-12T06:21:00,mfh,71.13
2023-09-12T06:22:00,mfh,70.93
2023-09-12T06:23:00,mfh,70.34
2023-09-12T06:24:00,mfh,70.49
2023-09-12T06:25:00,mfh,69.47
2023-09-12T06:26:00,mfh,69.69
2023-09-12T06:27:00,mfh,69.03
2023-09-12T06:28:00,mfh,68.81
2023-09-12T06:29:00,mfh,72.58
2023-09-12T06:30:00,mfh,79.70
2023-09-12T06:31:00,mfh,80.61
2023-09-12T06:32:00,mfh,80.47
2023-09-12T06:33:00,mfh,80.06
2023-09-12T06:34:00,mfh,80.09
2023-09-12T06:35:00,mfh,79.97
2023-09-12T06:36:00,mfh,80.43
2023-09-12T06:37:00,mfh,80.32
2023-09-12T06:38:00,mfh,80.52
2023-09-12T06:39:00,mfh,80.60
2023-09-12T06:40:00,mfh,80.53
2023-09-12T06:41:00,mfh,77.31
2023-09-12T06:42:00,mfh,77.34
2023-09-12T06:43:00,mfh,76.89
2023-09-12T06:44:00,mfh,77.06
2023-09-12T06:45:00,mfh,76.85
2023-09-12T06:46:00,mfh,77.46
2023-09-12T06:47:00,mfh,74.50
2023-09-12T06:48:00,mfh,74.78
2023-09-12T06:49:00,mfh,74.75
2023-09-12T06:50:00,mfh,74.49
2023-09-12T06:51:00,mfh,75.02
2023-09-12T06:52:00,mfh,71.51
2023-09-12T06:53:00,mfh,71.58
2023-09-12T06:54:00,mfh,71.51
2023-09-12T06:55:00,mfh,70.05
2023-09-12T06:56:00,mfh,71.15
2023-09-12T06:57:00,mfh,71.21
2023-09-12T06:58:00,mfh,72.06
2023-09-12T06:59:00,mfh,71.25
2023-09-12T07:00:00,mfh,70.91
2023-09-12T07:01:00,mfh,71.38
2023-09-12T07:02:00,mfh,71.60
2023-09-12T07:03:00,mfh,71.74
2023-09-12T07:04:00,mfh,70.48
2023-09-12T07:05:00,mfh,70.52
2023-09-12T07:06:00,mfh,70.87
2023-09-12T07:07:00,mfh,71.20
2023-09-12T07:08:00,mfh,71.34
2023-09-12T07:09:00,mfh,70.74
2023-09-12T07:10:00,mfh,70.48
2023-09-12T07:11:00,mfh,70.23
2023-09-12T07:12:00,mfh,70.00
2023-09-12T07:13:00,mfh,69.96
2023-09-12T07:14:00,mfh,69.85
2023-09-12T07:15:00,mfh,69.38
2023-09-12T07:16:00,mfh,69.61
2023-09-12T07:17:00,mfh,69.25
2023-09-12T07:18:00,mfh,69.70
2023-09-12T07:19:00,mfh,70.10
2023-09-12T07:20:00,mfh,70.53
2023-09-12T07:21:00,mfh,70.25
2023-09-12T07:22:00,mfh,70.00
2023-09-12T07:23:00,mfh,69.57
2023-09-12T07:24:00,mfh,70.26
2023-09-12T07:25:00,mfh,69.41
2023-09-12T07:26:00,mfh,69.50
2023-09-12T07:27:00,mfh,69.40
2023-09-12T07:28:00,mfh,70.06
2023-09-12T07:29:00,mfh,69.93
2023-09-12T07:30:00,mfh,70.63
2023-09-12T07:31:00,mfh,70.07
2023-09-12T07:32:00,mfh,70.51
2023-09-12T07:33:00,mfh,70.47
2023-09-12T07:34:00,mfh,70.49
2023-09-12T07:35:00,mfh,70.32
2023-09-12T07:36:00,mfh,69.26
2023-09-12T07:37:00,mfh,69.45
2023-09-12T07:38:00,mfh,70.73
2023-09-12T07:39:00,mfh,70.30
2023-09-12T07:40:00,mfh,69.61
2023-09-12T07:41:00,mfh,69.64
2023-09-12T07:42:00,mfh,69.55
2023-09-12T07:43:00,mfh,69.44
2023-09-12T07:44:00,mfh,69.38
2023-09-12T07:45:00,mfh,69.39
2023-09-12T07:46:00,mfh,73.15
2023-09-12T07:47:00,mfh,79.87
2023-09-12T07:48:00,mfh,80.35
2023-09-12T07:49:00,mfh,80.75
2023-09-12T07:50:00,mfh,80.47
2023-09-12T07:51:00,mfh,80.61
2023-09-12T07:52:00,mfh,80.49
2023-09-12T07:53:00,mfh,80.40
2023-09-12T07:54:00,mfh,80.59
2023-09-12T07:55:00,mfh,80.44
2023-09-12T07:56:00,mfh,80.86
2023-09-12T07:57:00,mfh,80.29
2023-09-12T07:58:00,mfh,76.82
2023-09-12T07:59:00,mfh,77.10
2023-09-12T08:00:00,mfh,77.07
2023-09-12T08:01:00,mfh,77.62
2023-09-12T08:02:00,mfh,78.12
2023-09-12T08:03:00,mfh,77.86
2023-09-12T08:04:00,mfh,75.81
2023-09-12T08:05:00,mfh,76.73
2023-09-12T08:06:00,mfh,76.63
2023-09-12T08:07:00,mfh,76.80
2023-09-12T08:08:00,mfh,76.16
2023-09-12T08:09:00,mfh,74.34
2023-09-12T08:10:00,mfh,75.79
2023-09-12T08:11:00,mfh,75.40
2023-09-12T08:12:00,mfh,76.42
2023-09-12T08:13:00,mfh,79.97
2023-09-12T08:14:00,mfh,79.88
2023-09-12T08:15:00,mfh,79.82
2023-09-12T08:16:00,mfh,79.82
2023-09-12T08:17:00,mfh,79.68
2023-09-12T08:18:00,mfh,79.20
2023-09-12T08:19:00,mfh,79.09
2023-09-12T08:20:00,mfh,82.42
2023-09-12T08:21:00,mfh,80.68
2023-09-12T08:22:00,mfh,80.57
2023-09-12T08:23:00,mfh,80.46
2023-09-12T08:24:00,mfh,80.24
2023-09-12T08:25:00,mfh,82.50
2023-09-12T08:26:00,mfh,82.37
2023-09-12T08:27:00,mfh,82.36
2023-09-12T08:28:00,mfh,82.25
2023-09-12T08:29:00,mfh,81.99
2023-09-12T08:30:00,mfh,82.20
2023-09-12T08:31:00,mfh,82.67
2023-09-12T08:32:00,mfh,82.45
2023-09-12T08:33:00,mfh,82.66
2023-09-12T08:34:00,mfh,82.69
2023-09-12T08:35:00,mfh,79.86
2023-09-12T08:36:00,mfh,79.67
2023-09-12T08:37:00,mfh,80.10
2023-09-12T08:38:00,mfh,79.20
2023-09-12T08:39:00,mfh,79.22
2023-09-12T08:40:00,mfh,76.70
2023-09-12T08:41:00,mfh,77.43
2023-09-12T08:42:00,mfh,77.26
2023-09-12T08:43:00,mfh,77.41
2023-09-12T08:44:00,mfh,77.30
2023-09-12T08:45:00,mfh,77.47
2023-09-12T08:46:00,mfh,83.11
2023-09-12T08:47:00,mfh,83.14
2023-09-12T08:48:00,mfh,82.93
2023-09-12T08:49:00,mfh,82.77
2023-09-12T08:50:00,mfh,82.55
2023-09-12T08:51:00,mfh,82.53
2023-09-12T08:52:00,mfh,82.92
2023-09-12T08:53:00,mfh,82.97
2023-09-12T08:54:00,mfh,82.98
2023-09-12T08:55:00,mfh,82.56
2023-09-12T08:56:00,mfh,82.90
2023-09-12T08:57:00,mfh,82.85
2023-09-12T08:58:00,mfh,82.82
2023-09-12T08:59:00,mfh,82.53
2023-09-12T09:00:00,mfh,82.55
2023-09-12T09:01:00,mfh,82.86
2023-09-12T09:02:00,mfh,82.88
2023-09-12T09:03:00,mfh,82.97
2023-09-12T09:04:00,mfh,82.91
2023-09-12T09:05:00,mfh,83.07
2023-09-12T09:06:00,mfh,83.11
2023-09-12T09:07:00,mfh,83.11
2023-09-12T09:08:00,mfh,83.51
2023-09-12T09:09:00,mfh,83.17
2023-09-12T09:10:00,mfh,82.87
2023-09-12T09:11:00,mfh,82.99
2023-09-12T09:12:00,mfh,83.03
2023-09-12T09:13:00,mfh,83.39
2023-09-12T09:14:00,mfh,83.27
2023-09-12T09:15:00,mfh,83.89
2023-09-12T09:16:00,mfh,83.97
2023-09-12T09:17:00,mfh,83.36
2023-09-12T09:18:00,mfh,83.43
2023-09-12T09:19:00,mfh,83.84
2023-09-12T09:20:00,mfh,82.84
2023-09-12T09:21:00,mfh,83.08
2023-09-12T09:22:00,mfh,83.08
2023-09-12T09:23:00,mfh,83.30
2023-09-12T09:24:00,mfh,83.36
2023-09-12T09:25:00,mfh,83.16
2023-09-12T09:26:00,mfh,83.50
2023-09-12T09:27:00,mfh,83.77
2023-09-12T09:28:00,mfh,80.71
2023-09-12T09:29:00,mfh,77.28
2023-09-12T09:30:00,mfh,77.96
2023-09-12T09:31:00,mfh,74.89
2023-09-12T09:32:00,mfh,74.35
2023-09-12T09:33:00,mfh,74.35
2023-09-12T09:34:00,mfh,75.13
2023-09-12T09:35:00,mfh,75.17
2023-09-12T09:36:00,mfh,75.81
2023-09-12T09:37:00,mfh,75.82
2023-09-12T09:38:00,mfh,75.47
2023-09-12T09:39:00,mfh,76.57
2023-09-12T09:40:00,mfh,83.24
2023-09-12T09:41:00,mfh,83.06
2023-09-12T09:42:00,mfh,83.17
2023-09-12T09:43:00,mfh,83.38
2023-09-12T09:44:00,mfh,83.69
2023-09-12T09:45:00,mfh,83.47
2023-09-12T09:46:00,mfh,83.59
2023-09-12T09:47:00,mfh,83.72
2023-09-12T09:48:00,mfh,83.70
2023-09-12T09:49:00,mfh,84.00
2023-09-12T09:50:00,mfh,83.68
2023-09-12T09:51:00,mfh,83.47
2023-09-12T09:52:00,mfh,83.07
2023-09-12T09:53:00,mfh,83.13
2023-09-12T09:54:00,mfh,83.34
2023-09-12T09:55:00,mfh,83.51
2023-09-12T09:56:00,mfh,83.46
2023-09-12T09:57:00,mfh,83.41
2023-09-12T09:58:00,mfh,83.64
2023-09-12T09:59:00,mfh,83.77
2023-09-12T10:00:00,mfh,83.66
2023-09-12T10:01:00,mfh,84.14
2023-09-12T10:02:00,mfh,84.00
2023-09-12T10:03:00,mfh,81.90
2023-09-12T10:04:00,mfh,81.77
2023-09-12T10:05:00,mfh,82.23
2023-09-12T10:06:00,mfh,80.60
2023-09-12T10:07:00,mfh,80.09
2023-09-12T10:08:00,mfh,79.69
2023-09-12T10:09:00,mfh,76.79
2023-09-12T10:10:00,mfh,77.00
2023-09-12T10:11:00,mfh,77.16
2023-09-12T10:12:00,mfh,77.39
2023-09-12T10:13:00,mfh,82.21
2023-09-12T10:14:00,mfh,82.11
2023-09-12T10:15:00,mfh,82.06
2023-09-12T10:16:00,mfh,82.27
2023-09-12T10:17:00,mfh,82.31
2023-09-12T10:18:00,mfh,82.25
2023-09-12T10:19:00,mfh,82.26
2023-09-12T10:20:00,mfh,81.86
2023-09-12T10:21:00,mfh,82.37
2023-09-12T10:22:00,mfh,82.01
2023-09-12T10:23:00,mfh,81.70
2023-09-12T10:24:00,mfh,81.40
2023-09-12T10:25:00,mfh,80.90
2023-09-12T10:26:00,mfh,81.14
2023-09-12T10:27:00,mfh,81.26
2023-09-12T10:28:00,mfh,81.15
2023-09-12T10:29:00,mfh,81.20
2023-09-12T10:30:00,mfh,81.66
2023-09-12T10:31:00,mfh,81.86
2023-09-12T10:32:00,mfh,81.69
2023-09-12T10:33:00,mfh,81.69
2023-09-12T10:34:00,mfh,74.59
2023-09-12T10:35:00,mfh,74.51
2023-09-12T10:36:00,mfh,74.42
2023-09-12T10:37:00,mfh,75.40
2023-09-12T10:38:00,mfh,75.07
2023-09-12T10:39:00,mfh,71.85
2023-09-12T10:40:00,mfh,71.86
2023-09-12T10:41:00,mfh,72.29
2023-09-12T10:42:00,mfh,72.12
2023-09-12T10:43:00,mfh,72.27
2023-09-12T10:44:00,mfh,72.13
2023-09-12T10:45:00,mfh,71.98
2023-09-12T10:46:00,mfh,70.31
2023-09-12T10:47:00,mfh,70.39
2023-09-12T10:48:00,mfh,71.03
2023-09-12T10:49:00,mfh,71.52
2023-09-12T10:50:00,mfh,71.63
2023-09-12T10:51:00,mfh,71.46
2023-09-12T10:52:00,mfh,70.95
2023-09-12T10:53:00,mfh,71.10
2023-09-12T10:54:00,mfh,71.04
2023-09-12T10:55:00,mfh,71.28
2023-09-12T10:56:00,mfh,70.90
2023-09-12T10:57:00,mfh,70.36
2023-09-12T10:58:00,mfh,71.25
2023-09-12T10:59:00,mfh,77.87
2023-09-12T11:00:00,mfh,77.85
2023-09-12T11:01:00,mfh,78.03
2023-09-12T11:02:00,mfh,80.08
2023-09-12T11:03:00,mfh,83.64
2023-09-12T11:04:00,mfh,83.52
2023-09-12T11:05:00,mfh,83.45
2023-09-12T11:06:00,mfh,83.38
2023-09-12T11:07:00,mfh,83.66
2023-09-12T11:08:00,mfh,83.36
2023-09-12T11:09:00,mfh,83.54
2023-09-12T11:10:00,mfh,83.45
2023-09-12T11:11:00,mfh,83.99
2023-09-12T11:12:00,mfh,83.48
2023-09-12T11:13:00,mfh,83.59
2023-09-12T11:14:00,mfh,83.66
2023-09-12T11:15:00,mfh,83.91
2023-09-12T11:16:00,mfh,83.61
2023-09-12T11:17:00,mfh,83.59
2023-09-12T11:18:00,mfh,83.58
2023-09-12T11:19:00,mfh,83.83
2023-09-12T11:20:00,mfh,83.87
2023-09-12T11:21:00,mfh,83.83
2023-09-12T11:22:00,mfh,84.20
2023-09-12T11:23:00,mfh,84.02
2023-09-12T11:24:00,mfh,81.48
2023-09-12T11:25:00,mfh,81.78
2023-09-12T11:26:00,mfh,81.22
2023-09-12T11:27:00,mfh,81.00
2023-09-12T11:28:00,mfh,81.51
2023-09-12T11:29:00,mfh,81.23
2023-09-12T11:30:00,mfh,82.23
2023-09-12T11:31:00,mfh,81.28
2023-09-12T11:32:00,mfh,81.63
2023-09-12T11:33:00,mfh,81.39
2023-09-12T11:34:00,mfh,81.59
2023-09-12T11:35:00,mfh,81.27
2023-09-12T11:36:00,mfh,81.32
2023-09-12T11:37:00,mfh,81.30
2023-09-12T11:38:00,mfh,80.87
2023-09-12T11:39:00,mfh,80.35
2023-09-12T11:40:00,mfh,81.65
2023-09-12T11:41:00,mfh,81.38
2023-09-12T11:42:00,mfh,80.94
2023-09-12T11:43:00,mfh,81.12
2023-09-12T11:44:00,mfh,80.93
2023-09-12T11:45:00,mfh,78.95
2023-09-12T11:46:00,mfh,76.40
2023-09-12T11:47:00,mfh,76.21
2023-09-12T11:48:00,mfh,76.09
2023-09-12T11:49:00,mfh,75.46
2023-09-12T11:50:00,mfh,75.89
2023-09-12T11:51:00,mfh,82.17
2023-09-12T11:52:00,mfh,82.56
2023-09-12T11:53:00,mfh,83.02
2023-09-12T11:54:00,mfh,83.15
2023-09-12T11:55:00,mfh,82.67
2023-09-12T11:56:00,mfh,83.98
2023-09-12T11:57:00,mfh,83.93
2023-09-12T11:58:00,mfh,84.00
2023-09-12T11:59:00,mfh,83.87
2023-09-12T12:00:00,mfh,83.81
2023-09-12T12:01:00,mfh,83.96
2023-09-12T12:02:00,mfh,83.25
2023-09-12T12:03:00,mfh,83.35
2023-09-12T12:04:00,mfh,83.72
2023-09-12T12:05:00,mfh,83.34
2023-09-12T12:06:00,mfh,83.69
2023-09-12T12:07:00,mfh,83.25
2023-09-12T12:08:00,mfh,83.46
2023-09-12T12:09:00,mfh,83.52
2023-09-12T12:10:00,mfh,83.31
2023-09-12T12:11:00,mfh,83.32
2023-09-12T12:12:00,mfh,81.54
2023-09-12T12:13:00,mfh,81.81
2023-09-12T12:14:00,mfh,81.90
2023-09-12T12:15:00,mfh,75.73
2023-09-12T12:16:00,mfh,75.58
2023-09-12T12:17:00,mfh,76.12
2023-09-12T12:18:00,mfh,76.15
2023-09-12T12:19:00,mfh,76.23
2023-09-12T12:20:00,mfh,77.08
2023-09-12T12:21:00,mfh,71.43
2023-09-12T12:22:00,mfh,71.92
2023-09-12T12:23:00,mfh,71.67
2023-09-12T12:24:00,mfh,72.39
2023-09-12T12:25:00,mfh,72.43
2023-09-12T12:26:00,mfh,72.60
2023-09-12T12:27:00,mfh,72.67
2023-09-12T12:28:00,mfh,72.06
2023-09-12T12:29:00,mfh,71.99
2023-09-12T12:30:00,mfh,71.98
2023-09-12T12:31:00,mfh,72.40
2023-09-12T12:32:00,mfh,71.54
2023-09-12T12:33:00,mfh,71.33
2023-09-12T12:34:00,mfh,71.99
2023-09-12T12:35:00,mfh,71.84
2023-09-12T12:36:00,mfh,72.24
2023-09-12T12:37:00,mfh,72.11
2023-09-12T12:38:00,mfh,71.98
2023-09-12T12:39:00,mfh,71.71
2023-09-12T12:40:00,mfh,71.84
2023-09-12T12:41:00,mfh,72.23
2023-09-12T12:42:00,mfh,72.95
2023-09-12T12:43:00,mfh,72.95
2023-09-12T12:44:00,mfh,73.08
2023-09-12T12:45:00,mfh,74.81
2023-09-12T12:46:00,mfh,75.90
2023-09-12T12:47:00,mfh,74.98
2023-09-12T12:48:00,mfh,82.35
2023-09-12T12:49:00,mfh,82.48
2023-09-12T12:50:00,mfh,82.35
2023-09-12T12:51:00,mfh,82.04
2023-09-12T12:52:00,mfh,82.02
2023-09-12T12:53:00,mfh,82.00
2023-09-12T12:54:00,mfh,81.90
2023-09-12T12:55:00,mfh,81.78
2023-09-12T12:56:00,mfh,82.11
2023-09-12T12:57:00,mfh,81.68
2023-09-12T12:58:00,mfh,81.84
2023-09-12T12:59:00,mfh,81.87
2023-09-12T13:00:00,mfh,81.82
2023-09-12T13:01:00,mfh,81.98
2023-09-12T13:02:00,mfh,79.40
2023-09-12T13:03:00,mfh,78.85
2023-09-12T13:04:00,mfh,78.65
2023-09-12T13:05:00,mfh,74.94
2023-09-12T13:06:00,mfh,75.75
2023-09-12T13:07:00,mfh,75.57
2023-09-12T13:08:00,mfh,75.44
2023-09-12T13:09:00,mfh,76.10
2023-09-12T13:10:00,mfh,76.24
2023-09-12T13:11:00,mfh,75.61
2023-09-12T13:12:00,mfh,76.14
2023-09-12T13:13:00,mfh,75.73
2023-09-12T13:14:00,mfh,75.22
2023-09-12T13:15:00,mfh,76.05
2023-09-12T13:16:00,mfh,75.60
2023-09-12T13:17:00,mfh,75.75
2023-09-12T13:18:00,mfh,76.60